AirNav   Air Wisconsin Airman Trainee
 
 982 users online  

00AL Epps Airpark
Harvest, Alabama, USA

GOING TO HARVEST?


FAA INFORMATION EFFECTIVE 23 MAY 2019

Location

FAA Identifier: 00AL
Lat/Long: 34-51-53.3170N / 086-46-12.9990W
34-51.888617N / 086-46.216650W
34.8648103 / -86.7702775
(estimated)
Elevation: 820 ft. / 250 m (estimated)
Variation: 00W (1985)
From city: 1 mile NW of HARVEST, AL
Time zone: UTC -5 (UTC -6 during Standard Time)
Zip code: 35749

Airport Operations

Airport use: Private use. Permission required prior to landing
Activation date: 10/1964
Control tower: no
ARTCC: MEMPHIS CENTER
FSS: ANNISTON FLIGHT SERVICE STATION
Attendance: UNATNDD
Wind indicator: yes
Segmented circle: no

Airport Communications

WX AWOS-3PT at MDQ (10 nm E): 120.000 (256-829-1242)
WX ASOS at HSV (14 nm S): PHONE 256-772-8074
WX ASOS at DCU (15 nm SW): 118.375 (256-350-4270)
WX AWOS-3 at FYM (15 nm NE): 135.275 (931-433-5916)

Nearby radio navigation aids

VOR radial/distance  VOR name  Freq  Var
RQZr299/7.8ROCKET VORTAC112.2002E
DCUr034/15.4DECATUR VOR/DME112.8001W
MSLr074/36.8MUSCLE SHOALS VORTAC116.5001E

 
NDB name  Hdg/Dist  Freq  Var  ID
REDSTONE342/10.828704WHUA .... ..- .-

Airport Services

Airframe service: NONE
Powerplant service: NONE

Runway Information

Runway 1/19

Dimensions: 2300 x 200 ft. / 701 x 61 m
Surface: turf
RUNWAY 1  RUNWAY 19
Traffic pattern: leftleft

Airport Ownership and Management from official FAA records

Ownership: Privately-owned
Owner: GEORGE F. EPPS
1635 HARVEST RD, P.O. BOX 356
HARVEST, AL 35749
Phone 256-837-2369
Manager: GEORGE F. EPPS
1635 HARVEST RD, P.O. BOX 356
HARVEST, AL 35749
Phone 256-837-2369

Airport Operational Statistics

Aircraft based on the field: 8
Single engine airplanes: 7
Gliders airplanes: 1
    

Instrument Procedures

There are no published instrument procedures at 00AL.

Some nearby airports with instrument procedures:

KMDQ - Huntsville Executive Airport / Tom Sharp Jr Field (10 nm E)
KHUA - Redstone Army Airfield (12 nm S)
KHSV - Huntsville International Airport-Carl T Jones Field (14 nm S)
KDCU - Pryor Field Regional Airport (15 nm SW)
KFYM - Fayetteville Municipal Airport (15 nm NE)
 
Loc | Ops | Rwys | IFR | FBO | Links
Com | Nav | Svcs | Stats | Notes
Area around 00AL (Epps Airpark)
 
Road maps at: MapQuest Bing Google
 
Aerial photo
No photo
 
Sectional chart

 
Airport distance calculator
Flying to Epps Airpark? Find the distance to fly.

From to 00AL

Sunrise and sunset
Times for 19-Jun-2019
 Local
(UTC-5)
 Zulu
(UTC)
Morning civil twilight05:0510:05
Sunrise05:3410:34
Sunset20:0201:02
Evening civil twilight20:3201:32

Current date and time
Zulu (UTC)  20-Jun-2019 00:28:18
Local (UTC-5)  19-Jun-2019 19:28:18
 
METAR
KMDQ 
11nm E 
200015Z AUTO 22011G16KT 10SM SCT050 30/20 A2975 RMK A02 T02960202
KHUA 
12nm S 
192358Z AUTO 24009KT 10SM FEW050 30/21 A2973 RMK AO2 SLP061 T03010205 10318 20294 57010
KHSV 
13nm S 
192353Z 22013G19KT 10SM FEW040 SCT250 32/21 A2975 RMK AO2 SLP063 T03170206 10333 20306 56009 $
KFYM 
15nm NE 
200015Z AUTO 21006KT 10SM CLR 29/21 A2975 RMK A01
KDCU 
16nm SW 
192353Z AUTO 22009G16KT 10SM CLR 31/21 A2975 RMK AO2 SLP065 T03060211 10317 20289 56010
TAF
KHSV 
13nm S 
191729Z 1918/2018 25010G15KT P6SM VCSH BKN040 FM191900 25010G17KT P6SM VCTS SCT040CB BKN100 FM200100 22008KT P6SM SCT050 BKN250 FM200800 20015KT P6SM VCTS SCT030 OVC060CB TEMPO 2010/2014 VRB25G35KT -TSRA BKN030CB FM201500 25015KT P6SM OVC015
NOTAMs
Click for the latest NOTAMs
NOTAMs are issued by the DoD/FAA and will open in a separate window not controlled by AirNav.

 

 
 

Would you like to see your business listed on this page?

 If your business provides an interesting product or service to pilots, flight crews, aircraft, or users of the Epps Airpark, you should consider listing it here.  To start the listing process, click on the button below
 
Add a business
 

Other Pages about Epps Airpark

Update a link
 
Copyright © AirNav, LLC. All rights reserved. Privacy Policy  Contact